Simultaneous Nadir Overpasses (SNOs) Predictions

Prediction of SNOs between AQUA and NPP Satellite Orbit:

Table of predicted SNOs for the next 14.0 days since TLE Epoch: 12/15/2017
Index Date (AQUA) Time (AQUA) Lat,Lon (AQUA) SZA (AQUA ) Date (NPP) Time (NPP) Lat,Lon (NPP) SZA (NPP ) Distance(km) Time Diff (sec)
1 12/15/2017 22:37:45 76.90, 82.60 118.67 12/15/2017 22:38:31 76.90, 82.58 118.63 0.56 46
2 12/18/2017 14:05:06 -76.15, 28.28 60.35 12/18/2017 14:04:58 -76.14, 28.21 60.33 1.92 8
3 12/18/2017 14:54:06 77.37,-159.74 118.30 12/18/2017 14:55:14 77.37,-159.62 118.21 2.84 68
4 12/21/2017 05:32:22 75.54, -25.32 120.41 12/21/2017 05:31:19 75.54, -25.31 120.47 0.17 63
5 12/21/2017 06:21:25 -76.72, 146.07 60.87 12/21/2017 06:21:39 -76.73, 146.14 60.90 1.97 14
6 12/23/2017 21:48:48 75.77, 91.25 120.21 12/23/2017 21:48:08 75.77, 91.20 120.27 1.69 40
7 12/23/2017 22:37:51 -76.95, -97.24 61.08 12/23/2017 22:38:28 -76.95, -97.22 61.11 0.54 37
8 12/26/2017 14:05:04 76.44,-150.77 119.49 12/26/2017 14:04:46 76.45,-150.66 119.48 2.87 18
9 12/26/2017 14:54:17 -77.12, 19.28 61.28 12/26/2017 14:55:17 -77.12, 19.26 61.33 0.44 60
10 12/29/2017 05:32:31 -75.36, 154.16 59.40 12/29/2017 05:31:20 -75.35, 154.12 59.32 1.26 71
11 12/29/2017 06:21:29 76.71, -33.97 119.13 12/29/2017 06:21:34 76.72, -33.89 119.11 2.17 5




NCC Satellite Simultaneous Nadir Overpasses (SNOs) Prediction Service
